Showing default

BRO-8, 55011

Orbit data source: Space-Track

BRO-8, 55011 is a payload satellite owned by Unseen Labs (FR) in SSO that was launched on Tue, 03 Jan 2023 UTC via an FALCON 9 launch vehicle from the Air Force Eastern Test Range (AFETR). Payload-class satellites include a variety of spacecraft equipped with specific instruments for various scientific and technological missions. These include communications satellites like Starlink; space stations such as the ISS; scientific satellites like the Hubble; Earth observation satellites from companies like Planet Labs, Umbra, and HawkEye 360; GPS; miniature CubeSats for education and research; and military/defense satellites.

Loading next visibility...
Identifier
55011, 2023-001C
Orbit
SSO
Country
Flag of FRFR
Related business
Manufacturer
GOMSpace
Mission
Operational Commercial Sigint
Bus & Motor
CUBESAT 6U, Unknown motor
Mass
10 kg wet, ~10 kg dry
Launch date (UTC)
2023-01-03 (3 years ago)
Launch vehicle
FALCON 9
Launch site
Air Force Eastern Test Range (AFETR)
Object type
Payload
Rocket body
Debris
Shape & HBR
Box, 0.1 m
Radar Cross Section
0.080 m², Medium (>0.1 m² and < 1m²)

Expand to show TLE details & history
Last TLE update: 11 hours ago

TLE from 11 hours ago
0 BRO-8
1 55011U 23001C   26023.59305463  .00038530  00000-0  95582-3 0  9997
2 55011  97.3442  87.4678 0005737 288.2504  71.8118 15.40250911169880
Epoch: 2026-01-23T14:13Z
TLE epoch observation values (Epoch: 2026-01-23T14:13:59.920Z)
Latitude
0.00004°
Longitude
111.03848°
Altitude
447.268 km
Speed
7.645 km/s
True Right ascension
05h 49m 52s
True Declination
0° 00' 00"
Sunlit
Object was in full shadow at epoch
Visualization orbit readout
Latitude
Unknown
Longitude
Unknown
Altitude
Unknown
Speed
Unknown
Apparent Right ascension
Unknown
Apparent Declination
Unknown
Sunlit
N/A
Visualization observer readout
Local Sidereal Time
02:54:47
Azimuth
Unknown
Elevation
Unknown
Doppler factor
Unknown
Orbital elements
Apogee altitude
446.217 km
Perigee altitude
438.392 km
Semi-major axis
6,820.441 km
Eccentricity
0.00057
Inclination
97.3442°
RAAN
87.4678°
Arg. of periapsis
288.2504°
True anomaly
71.87427°
Mean anomaly
71.8118°
Eccentric anomaly
71.84303°
Mean motion
3.85323 °/min
Orbital period
93.43 mins
BSTAR
0.00095582
Loading maneuver chart data...
Computing Atmospheric mass density...

Documentation

Showing up to 5 results
|